千帆星座-230(QIANFAN-230)

导读

QIANFAN-230(NORAD编号69859)是中国千帆星座的低轨通信卫星,隶属上海垣信卫星科技有限公司主导建设的商业化低轨卫星互联网星座。该卫星大概率于2026年7月5日随长征八号甲运载火箭在海南商业航天发射场发射入轨,为此次发射升空的20颗千帆组网卫星之一,发射后千帆星座在轨总规模增至238颗。卫星运行于低地球轨道,采用平板堆叠式设计,可提供低时延宽带通信服务,支撑偏远地区网络覆盖、远洋通信、航空互联等场景需求,是千帆星座2026年完成一期324颗星组网目标的重要组成部分。

Basic Information
目录编号:
69859
目录名称:
QIANFAN-230
国际标识:
2026-155M
轨道中心:
EARTH
卫星名称:
千帆星座-230
卫星全名:
千帆星座-230(QIANFAN-230)
卫星状态:
在轨 (已飞行62 天)
发射日期:
2026-07-05 UTC
国别 :
中国 (CN)
星等 :
--
Orbit Information
数据来源 国际轨道数据
星历时间: 2026-09-05T04:38:32+0800
11小时前
查看轨道信息
半长轴: 7406.526km
偏心率: 0.0036178
轨道倾角: 89.006°
近地点辐角 46.896°
升交点赤经 55.327°
平近点角 313.522°
近地点: 1001.593km
远地点: 1055.185km
周期: 105.726分钟
每日圈数: 13.620121
Detailed Information
卫星平台:
230
覆盖范围:
全球
运营商:
上海垣信卫星科技有限公司
运营商所在国:
中国
使用方式:
暂无
Satellite Introduction
千帆星座,也被称为“G60星链”计划,是中国版“星链”的重要组成部分,旨在打造一个由1.4万多颗低轨宽频多媒体卫星构成的庞大星座。千帆星座计划由上海垣信卫星科技有限公司负责实施,于2023年启动建设。该项目是我国第二个低轨卫星大星座,旨在通过构建庞大的卫星网络,为全球用户提供高质量的通信和宽带互联网服务。
2D Orbit Map
3D Orbit Map
Orbit Altitude Analysis Chart
Orbit Inclination Analysis Chart
Orbit Comprehensive Analysis Chart
View Comprehensive Chart
Conjunction Data List
Event ID Objects TCA Miss Dist (km) Collision Risk Probability Collision Risk Index (CRI) Action
CDM_260906-062102-190206-985922
2026-09-06T
06:21:51+0000
0.940 km
远距离
3.320708E-5 中风险 0.65
CDM_260829-103703-216106-985921
2026-08-29T
10:37:48+0000
0.996 km
远距离
1.901046E-5 中风险 0.61
CDM_260907-100402-991706-985921
2026-09-07T
10:04:39+0000
2.955 km
极远距离
7.661252E-7 极低风险 0.33